Terug naar catalogus

STARLINK-31309

ActiefCommunicatieVLEO
NORAD 59164·PAYLOAD·🇺🇸 United States

Gelanceerd Mar 4, 2024 vanaf Cape Canaveral Space Force Station

Loading…

Volgende Passages (komende 24 uur)

TLE

VersSource: CelesTrak SupGP

Epoch: Sep 15, 2026, 02:22 UTC

1 59164C 24044N   26258.09909722  .00056819  00000+0  20582-2 0  2585
2 59164  42.9997 117.1926 0001570 275.3196 135.0510 15.27545659    15

Volg STARLINK-31309 in realtime met AllMySat

Download on the App Store